Regional Weather Roundup
Issued by NWS

Home | Current Version | Previous Version | Text Only | Print | Product List | Glossary On
Versions: 1 2 3 4 5 6 7 8 9 10 11 12 13 14 15 16 17 18 19 20 21 22 23 24 25 26 27 28 29 30 31 32 33 34 35 36 37 38 39 40 41 42 43 44 45 46 47 48 49 50
000
ASUS44 KOUN 240110
RWROK

WEATHER ROUNDUP FOR OKLAHOMA
NATIONAL WEATHER SERVICE NORMAN OK
800 PM CDT WED APR 23 2014

NOTE: "FAIR" INDICATES FEW OR NO CLOUDS BELOW 12,000 FEET WITH NO
      SIGNIFICANT WEATHER AND/OR OBSTRUCTIONS TO VISIBILITY.

OKZ001>007-009>012-014-015-017-240200-
NORTHWEST OKLAHOMA AND THE PANHANDLE

CITY           SKY/WX    TMP DP  RH WIND       PRES   REMARKS
GAGE           CLOUDY    74  55  51 S36G47    29.54F
ENID/VANCE AFB TSTM      70  64  83 SE22      29.67S
ENID/WOODRING  LGT RAIN  73  59  60 S14       29.70R
$$

OKZ016-021>023-033>039-044-045-240200-
SOUTHWEST OKLAHOMA

CITY           SKY/WX    TMP DP  RH WIND       PRES   REMARKS
LAWTON/REGL    LGT RAIN  75  61  60 SE18G26   29.67R
LAWTON/FT SILL TSTM      75  61  60 SE17G23   29.66R
FREDERICK      CLOUDY    79  59  50 SE22G31   29.58F
CLINTON        LGT RAIN  67  61  81 E22G30    29.67S
HOBART         TSTM      69  62  78 SE17      29.65R
ALTUS AFB      CLOUDY    76  60  56 SE24G36   29.55F THUNDER
$$

OKZ018>020-024>031-240200-
CENTRAL OKLAHOMA

CITY           SKY/WX    TMP DP  RH WIND       PRES   REMARKS
OKLAHOMA CITY  CLOUDY    78  54  43 S18       29.70R
OKC/WILEY POST CLOUDY    78  51  38 S18G24    29.69R
OKC/TINKER AFB CLOUDY    77  56  48 S13G23    29.71R
STILLWATER     CLOUDY    79  52  38 S18G28    29.68R
GUTHRIE        CLOUDY    80  52  37 S14G22    29.70R
$$

OKZ008-013-054>072-240200-
NORTHEAST OKLAHOMA

CITY           SKY/WX    TMP DP  RH WIND       PRES   REMARKS
TULSA          MOCLDY    79  55  43 S17       29.70F
TULSA/JONES    PTCLDY    80  56  43 S10       29.71F
PONCA CITY     CLOUDY    81  50  33 S10G21    29.68R
BARTLESVILLE   PTCLDY    77  53  43 S15       29.71S
MUSKOGEE       MOCLDY    76  55  48 S9        29.76S
$$

OKZ032-040>043-046>053-073>077-240200-
SOUTH CENTRAL/SOUTHEAST OKLAHOMA

CITY           SKY/WX    TMP DP  RH WIND       PRES   REMARKS
ARDMORE/DWNTWN   N/A     77  57  50 SE10      29.71S
MCALESTER      MOCLDY    77  55  46 SE8       29.76F
$$




USA.gov is the U.S. government's official web portal to all federal, state and local government web resources and services.